Beckley, WV

3:57 PM EDT on September 15, 2019 (GMT -0400)
Raleigh County Memorial

Weather History for KBKW - August, 2019

Change the Weather History Date:

Saturday, August 24, 2019

  Actual Average Record
Temperature  
Mean Temperature 61 °F 69 °F  
Max Temperature 66 °F 79 °F 93 °F (2007)
Min Temperature 56 °F 60 °F 36 °F (1940)
Degree Days  
Heating Degree Days 4 0  
Month to date heating degree days 4 0  
Since 1 June heating degree days 40 47  
Since 1 July heating degree days 7 8  
Cooling Degree Days 0 5  
Month to date cooling degree days 178 133  
Year to date cooling degree days 679 466  
Since 1 June cooling degree days 559 425  
Growing Degree Days 11 (Base 50)    
Moisture  
Dew Point 56 °F    
Average Humidity 84    
Maximum Humidity 93    
Minimum Humidity 73    
Precipitation  
Precipitation 0.00 in 0.09 in 4.00 in (1926)
Month to date precipitation 3.23 2.85  
Year to date precipitation 31.35 29.04  
Sea Level Pressure  
Sea Level Pressure 30.17 in    
Wind  
Wind Speed 4 mph ()    
Max Wind Speed 13 mph    
Max Gust Speed 16 mph    
Visibility 9.5 miles    
Events      
T = Trace of Precipitation, MM = Missing Value Source: Averaged Metar Reports

Daily Weather History Graph

Daily Weather History Graph

Search for Another Location

Airport or City:

Astronomy

Aug. 24, 2019 Rise Set
Actual Time 6:47 AM EDT 8:05 PM EDT
Civil Twilight 6:20 AM EDT 8:32 PM EDT
Nautical Twilight 5:47 AM EDT 9:05 PM EDT
Astronomical Twilight 5:13 AM EDT 9:39 PM EDT
Moon 12:41 AM EDT (8/24) 3:16 PM EDT (8/24)
Length of Visible Light 14h 12m
Length of Day
13h 18m
Last Quarter, 39% of the Moon is Illuminated
Aug 24
Last Quarter
Aug 30
New
Sep 5
First Quarter
Sep 14
Full
Sep 21
Last Quarter

Hourly Weather History & Observations

Time (EDT) Temp. Dew Point Humidity Pressure Visibility Wind Dir Wind Speed Gust Speed Precip Events Conditions
12:47 AM 60.8 °F 55.4 °F 82% 30.17 in 10.0 mi NE 3.5 mph - N/A   Overcast
12:51 AM 60.1 °F 55.9 °F 86% 30.10 in 10.0 mi Calm Calm - N/A   Overcast
1:41 AM 60.1 °F 55.9 °F 86% 30.18 in 10.0 mi NE 4.6 mph - N/A   Overcast
1:51 AM 60.1 °F 55.9 °F 86% 30.11 in 10.0 mi North 3.5 mph - N/A   Overcast
2:51 AM 60.1 °F 55.9 °F 86% 30.10 in 10.0 mi NE 4.6 mph - N/A   Overcast
3:49 AM 60.8 °F 57.2 °F 88% 30.16 in 10.0 mi Calm Calm - N/A   Overcast
3:51 AM 60.1 °F 57.0 °F 90% 30.10 in 10.0 mi Calm Calm - N/A   Overcast
4:14 AM 60.1 °F 57.0 °F 90% 30.17 in 10.0 mi NNE 3.5 mph - N/A   Overcast
4:35 AM 60.1 °F 57.0 °F 90% 30.17 in 10.0 mi North 5.8 mph - N/A   Overcast
4:51 AM 60.1 °F 57.0 °F 90% 30.11 in 10.0 mi NNE 3.5 mph - N/A   Overcast
5:51 AM 60.1 °F 57.0 °F 90% 30.12 in 6.0 mi NNE 3.5 mph - N/A   Overcast
6:03 AM 60.1 °F 57.0 °F 90% 30.18 in 6.0 mi Calm Calm - N/A   Overcast
6:19 AM 60.1 °F 57.0 °F 90% 30.18 in 9.0 mi Calm Calm - N/A   Overcast
6:51 AM 60.1 °F 57.0 °F 90% 30.14 in 10.0 mi North 5.8 mph - N/A   Overcast
7:11 AM 60.8 °F 57.2 °F 88% 30.19 in 10.0 mi NNE 3.5 mph - N/A   Overcast
7:20 AM 60.1 °F 57.0 °F 90% 30.20 in 10.0 mi Calm Calm - N/A   Overcast
7:31 AM 60.1 °F 57.9 °F 93% 30.20 in 8.0 mi NNE 4.6 mph - N/A   Overcast
7:39 AM 60.1 °F 57.9 °F 93% 30.20 in 5.0 mi NNE 3.5 mph - N/A   Overcast
7:51 AM 60.1 °F 57.9 °F 93% 30.16 in 7.0 mi NE 3.5 mph - N/A   Overcast
8:20 AM 61.0 °F 57.9 °F 90% 30.20 in 10.0 mi ESE 3.5 mph - N/A   Overcast
8:51 AM 62.1 °F 57.0 °F 84% 30.15 in 10.0 mi Variable 3.5 mph - N/A   Overcast
9:51 AM 63.0 °F 55.9 °F 78% 30.16 in 10.0 mi ESE 9.2 mph - N/A   Overcast
10:02 AM 64.0 °F 57.0 °F 78% 30.21 in 10.0 mi ESE 5.8 mph - N/A   Overcast
10:51 AM 63.0 °F 55.9 °F 78% 30.17 in 10.0 mi East 9.2 mph - N/A   Overcast
11:51 AM 63.0 °F 55.9 °F 78% 30.18 in 10.0 mi SE 6.9 mph - N/A   Overcast
12:31 PM 63.0 °F 55.9 °F 78% 30.23 in 10.0 mi SE 5.8 mph - N/A   Overcast
12:51 PM 63.0 °F 55.9 °F 78% 30.18 in 10.0 mi SE 9.2 mph - N/A   Overcast
1:51 PM 63.0 °F 55.9 °F 78% 30.17 in 10.0 mi East 6.9 mph - N/A   Overcast
2:44 PM 64.0 °F 55.9 °F 75% 30.23 in 10.0 mi ESE 8.1 mph - N/A   Overcast
2:51 PM 64.0 °F 55.9 °F 75% 30.17 in 10.0 mi East 6.9 mph - N/A   Overcast
3:51 PM 63.0 °F 55.9 °F 78% 30.16 in 10.0 mi ESE 9.2 mph - N/A   Overcast
4:09 PM 63.0 °F 55.9 °F 78% 30.21 in 10.0 mi ESE 8.1 mph - N/A   Overcast
4:51 PM 63.0 °F 55.9 °F 78% 30.15 in 10.0 mi SE 8.1 mph - N/A   Overcast
5:51 PM 64.9 °F 55.9 °F 73% 30.14 in 10.0 mi SSE 6.9 mph - N/A   Overcast
6:38 PM 64.0 °F 55.0 °F 73% 30.20 in 10.0 mi SE 5.8 mph - N/A   Mostly Cloudy
6:51 PM 64.0 °F 55.0 °F 73% 30.14 in 10.0 mi SE 8.1 mph - N/A   Scattered Clouds
7:51 PM 62.1 °F 55.0 °F 78% 30.16 in 10.0 mi SE 6.9 mph - N/A   Clear
8:51 PM 59.0 °F 55.0 °F 87% 30.16 in 10.0 mi Calm Calm - N/A   Clear
9:51 PM 59.0 °F 54.0 °F 83% 30.18 in 10.0 mi Calm Calm - N/A   Clear
10:51 PM 57.9 °F 54.0 °F 87% 30.18 in 10.0 mi Calm Calm - N/A   Clear
11:51 PM 59.0 °F 54.0 °F 83% 30.18 in 10.0 mi SE 9.2 mph - N/A   Clear